User: anonymous   Login
Location: Bowman Observatory
(41.0326°N, 73.6210°W)
Time: 19:09:49
(UTC-04:00)
Language:

Cosmos 2298 Rocket - Orbit

View from above orbital plane
View from above orbital plane
View from above satellite
View from above satellite

Ground track
Ground track

The orbit data is extracted from the following two-line orbital elements,

1 23432U 94083B   16122.08835297  .00000029  00000-0  19920-4 0  9998
2 23432  74.0323 331.5380 0006293 277.7074 201.4724 14.33440683117254
Epoch (UTC): 01 May 2016 02:07:13
Eccentricity: 0.0006293
inclination: 74.0323°
perigee height: 776 km
apogee height: 785 km
right ascension of ascending node: 331.5380°
argument of perigee: 277.7074°
revolutions per day: 14.33440683
mean anomaly at epoch: 201.4724°
orbit number at epoch: 11725

The dashed part of the orbit path shows where the satellite is in the earth's shadow,  

DLR